TimeEST,TemperatureF,Dew PointF,Humidity,Sea Level PressureIn,VisibilityMPH,Wind Direction,Wind SpeedMPH,Gust SpeedMPH,PrecipitationIn,Events,Conditions,WindDirDegrees,DateUTC
12:52 AM,42.1,25.0,51,30.30,10.0,Variable,3.5,-,N/A,,Clear,0,2013-01-09 05:52:00
1:52 AM,44.1,28.0,53,30.31,10.0,WSW,3.5,-,N/A,,Clear,250,2013-01-09 06:52:00
2:52 AM,46.9,30.9,54,30.31,10.0,SW,4.6,-,N/A,,Clear,230,2013-01-09 07:52:00
3:52 AM,46.0,30.9,56,30.31,10.0,WSW,3.5,-,N/A,,Clear,240,2013-01-09 08:52:00
4:52 AM,46.9,33.1,59,30.31,10.0,WSW,4.6,-,N/A,,Partly Cloudy,250,2013-01-09 09:52:00
5:52 AM,48.0,35.1,61,30.32,10.0,West,5.8,-,N/A,,Clear,260,2013-01-09 10:52:00
6:52 AM,46.9,35.1,63,30.34,10.0,West,5.8,-,N/A,,Mostly Cloudy,260,2013-01-09 11:52:00
8:52 AM,52.0,39.0,61,30.36,10.0,West,8.1,-,N/A,,Overcast,270,2013-01-09 13:52:00
9:40 AM,53.6,41.0,62,30.39,10.0,West,9.2,-,N/A,,Overcast,270,2013-01-09 14:40:00
9:52 AM,54.0,41.0,62,30.38,10.0,West,10.4,-,N/A,,Mostly Cloudy,270,2013-01-09 14:52:00
10:52 AM,57.9,43.0,58,30.36,10.0,West,13.8,19.6,N/A,,Overcast,270,2013-01-09 15:52:00
12:12 PM,55.4,42.8,63,30.37,10.0,WNW,12.7,19.6,N/A,,Overcast,290,2013-01-09 17:12:00
12:52 PM,52.0,42.1,69,30.38,10.0,WNW,13.8,20.7,0.00,,Overcast,300,2013-01-09 17:52:00
1:22 PM,48.2,44.6,87,30.40,4.0,West,5.8,-,0.03,Rain,Light Rain,280,2013-01-09 18:22:00
1:31 PM,48.2,44.6,87,30.40,5.0,West,5.8,-,0.03,Rain,Light Rain,260,2013-01-09 18:31:00
1:40 PM,48.2,44.6,87,30.39,9.0,West,5.8,-,0.03,Rain,Light Rain,260,2013-01-09 18:40:00
1:52 PM,48.9,45.0,86,30.39,7.0,WSW,6.9,-,0.04,Rain,Light Rain,250,2013-01-09 18:52:00
2:52 PM,50.0,46.0,86,30.38,10.0,WSW,6.9,-,0.01,,Overcast,250,2013-01-09 19:52:00
3:52 PM,50.0,46.0,86,30.38,10.0,West,6.9,-,N/A,,Overcast,280,2013-01-09 20:52:00
4:09 PM,50.0,46.4,87,30.39,10.0,West,5.8,-,N/A,,Overcast,260,2013-01-09 21:09:00
4:52 PM,50.0,46.0,86,30.37,10.0,West,6.9,-,N/A,,Overcast,260,2013-01-09 21:52:00
5:52 PM,48.9,45.0,86,30.39,10.0,West,5.8,-,N/A,,Mostly Cloudy,270,2013-01-09 22:52:00
6:04 PM,48.2,44.6,87,30.40,10.0,West,4.6,-,N/A,,Overcast,270,2013-01-09 23:04:00
6:40 PM,48.2,46.4,93,30.42,10.0,West,5.8,-,N/A,,Overcast,270,2013-01-09 23:40:00
6:47 PM,50.0,46.4,87,30.42,10.0,West,6.9,-,N/A,,Overcast,280,2013-01-09 23:47:00
6:52 PM,50.0,46.0,86,30.41,10.0,West,6.9,-,N/A,,Overcast,280,2013-01-09 23:52:00
7:05 PM,48.2,46.4,93,30.44,10.0,WNW,5.8,-,N/A,,Overcast,290,2013-01-10 00:05:00
7:46 PM,48.2,46.4,93,30.45,1.8,WNW,6.9,-,N/A,,Overcast,290,2013-01-10 00:46:00
8:00 PM,48.2,46.4,93,30.45,0.8,West,8.1,-,N/A,,Mist,270,2013-01-10 01:00:00
8:52 PM,48.9,46.0,90,30.44,0.8,WNW,6.9,-,0.01,,Mist,290,2013-01-10 01:52:00
9:23 PM,48.2,46.4,93,30.47,1.0,NW,8.1,-,N/A,,Mist,310,2013-01-10 02:23:00
9:33 PM,48.2,46.4,93,30.47,2.0,NW,10.4,19.6,N/A,,Overcast,320,2013-01-10 02:33:00
9:41 PM,48.2,44.6,87,30.47,8.0,NW,8.1,18.4,N/A,,Overcast,310,2013-01-10 02:41:00
9:52 PM,48.9,44.1,83,30.45,10.0,WNW,6.9,-,N/A,,Overcast,300,2013-01-10 02:52:00
10:32 PM,48.2,44.6,87,30.48,10.0,NW,4.6,-,N/A,,Overcast,310,2013-01-10 03:32:00
10:52 PM,48.0,44.1,86,30.46,10.0,WNW,4.6,-,N/A,,Mostly Cloudy,300,2013-01-10 03:52:00
11:00 PM,46.4,44.6,93,30.48,10.0,Calm,Calm,-,N/A,,Mostly Cloudy,0,2013-01-10 04:00:00
11:23 PM,46.4,42.8,87,30.49,10.0,West,4.6,-,N/A,,Scattered Clouds,260,2013-01-10 04:23:00
11:52 PM,45.0,42.1,90,30.46,10.0,WNW,4.6,-,N/A,,Clear,290,2013-01-10 04:52:00